{"data":{"norad_id":67817,"epoch":"2026-09-19T22:52:49.929024Z","epoch_age_seconds":113728,"freshness":"FRESH","line1":"1 67817U 26032W   26262.95335566  .00008671  00000+0  27064-3 0  9995","line2":"2 67817  97.2855  89.4022 0001596  85.4909 274.6516 15.33441995 34729","mean_motion":15.33441995,"eccentricity":0.0001596,"inclination_deg":97.2855,"raan_deg":89.4022,"arg_perigee_deg":85.4909,"mean_anomaly_deg":274.6516,"bstar":0.00027064,"rev_number":3472,"period_min":93.90638867954,"perigee_km":464.45986247574,"apogee_km":466.64436804133,"semimajor_km":6843.6891152585,"source":"CELESTRAK","updated_at":"2026-09-20T09:00:43.666051Z"}}